STARLINK-36814, 67904

Orbit data source: Space-Track

STARLINK-36814, 67904 is a payload satellite owned by SpaceX/Seattle (US) in LEO that was launched on Sun, 22 Feb 2026 UTC via an FALCON 9 launch vehicle from the Air Force Eastern Test Range (AFETR). Payload-class satellites include a variety of spacecraft equipped with specific instruments for various scientific and technological missions. These include communications satellites like Starlink; space stations such as the ISS; scientific satellites like the Hubble; Earth observation satellites from companies like Planet Labs, Umbra, and HawkEye 360; GPS; miniature CubeSats for education and research; and military/defense satellites.

Loading next visibility...
Identifier
67904, 2026-036A
Orbit
LEO
Country
Flag of USUS
Related business
Manufacturer
SpaceX/Seattle
Mission
Operational spacecraft
Bus & Motor
STARLINK V2MO, Unknown motor
Mass
575 kg wet, ~530 kg dry
Launch date (UTC)
2026-02-22 (2 months ago)
Launch vehicle
FALCON 9
Launch site
Air Force Eastern Test Range (AFETR)
Object type
Payload
Rocket body
Debris
Shape & HBR
Unknown shape, 17.7 m
Radar Cross Section
RCS unknown

Expand to show TLE details & history
Last TLE update: 12 hours ago

TLE from 12 hours ago
0 STARLINK-36814
1 67904U 26036A   26103.85433151  .00012518  00000-0  45188-3 0  9991
2 67904  43.0037  47.2516 0002910 277.0690  82.9831 15.28424669  9099
Epoch: 2026-04-13T20:30Z
TLE epoch observation values (Epoch: 2026-04-13T20:30:14.242Z)
Latitude
-0.00002°
Longitude
-102.34672°
Altitude
480.054 km
Speed
7.628 km/s
True Right ascension
03h 09m 00s
True Declination
0° 00' 00"
Sunlit
Object was in daylight at epoch
Visualization orbit readout
Latitude
Unknown
Longitude
Unknown
Altitude
Unknown
Speed
Unknown
Apparent Right ascension
Unknown
Apparent Declination
Unknown
Sunlit
N/A
Visualization observer readout
Local Sidereal Time
15:06:36
Azimuth
Unknown
Elevation
Unknown
Doppler factor
Unknown
Orbital elements
Apogee altitude
484.463 km
Perigee altitude
480.47 km
Semi-major axis
6,860.603 km
Eccentricity
0.00029
Inclination
43.0037°
RAAN
47.2516°
Arg. of periapsis
277.069°
True anomaly
83.0162°
Mean anomaly
82.9831°
Eccentric anomaly
82.99965°
Mean motion
3.81944 °/min
Orbital period
94.25 mins
BSTAR
0.00045188
Loading maneuver chart data...
Computing Atmospheric mass density...
Loading historical data...
Loading historical data...
Loading historical data...
Loading historical data...
Loading historical data...
Loading historical data...
Loading historical data...

Documentation

Showing up to 5 results
|